Retour au catalogue

QIANFAN-106

ActifCommunicationsPO
NORAD 66048·PAYLOAD·🇨🇳 China

Lancé Oct 17, 2025 depuis Taiyuan Satellite Launch Center

Loading…

Prochains Passages (prochaines 24 heures)

TLE

FraisSource: Space-Track

Époque: Sep 14, 2026, 08:41 UTC

1 66048U 25233R   26257.36181134  .00000058  00000-0  71752-4 0  9997
2 66048  89.0038  34.1302 0001563 105.8320 254.3003 13.51029500 45227

Suivez QIANFAN-106 en temps réel avec AllMySat

Download on the App Store